Location: Castellar de la Frontera
(36.3200°N, 5.4500°W)
Time: 22:40:59
(UTC+02:00)

ISS - Pass Details

Date: 22 July 2018
Orbit: 402 x 408 km, 51.6° (Epoch: 22 July)

Event Time Altitude Azimuth Distance (km) Brightness Sun altitude
Rises 05:18:06 0° 314° (NW) 2,327 0.0 -20.6°
Reaches altitude 10° 05:20:13 10° 318° (NW) 1,465 -1.0 -20.3°
Maximum altitude 05:23:27 60° 39° (NE) 467 -3.3 -19.9°
Drops below altitude 10° 05:26:42 10° 121° (ESE) 1,459 -0.9 -19.4°
Sets 05:28:48 0° 125° (SE) 2,316 0.1 -19.1°
